Regional Weather Roundup
Issued by NWS

Home | Current Version | Previous Version | Text Only | Print | Product List | Glossary On
Versions: 1 2 3 4 5 6 7 8 9 10 11 12 13 14 15 16 17 18 19 20 21 22 23 24 25 26 27 28 29 30 31 32 33 34 35 36 37 38 39 40 41 42 43 44 45 46 47 48 49 50
000
ASUS44 KEWX 082011
RWRTX
SOUTH TEXAS REGIONAL WEATHER ROUNDUP
NATIONAL WEATHER SERVICE AUSTIN/SAN ANTONIO TX
200 PM CST MON FEB 08 2016

NOTE: "FAIR" INDICATED FEW OR NO CLOUDS BELOW 12,000 FEET WITH NO
SIGNIFICANT WEATHER AND/OR OBSTRUCTIONS TO VISIBILITY.

* - THESE STATIONS ARE NOT NWS OR FAA STATIONS...AND ARE NOT SUBJECT
    TO NWS AND FAA QUALITY CONTROL.

TXZ171-172-183>190-082100-
TEXAS HILL COUNTRY AND EDWARDS PLATEAU

CITY           SKY/WX    TMP DP  RH WIND       PRES   REMARKS
JUNCTION       SUNNY     58  12  16 N16G25    30.39F
*LLANO         SUNNY     61  12  15 N23G29    30.40F
BURNET         SUNNY     60  11  14 NW15G24   30.37F
*HORSESHOE BAY SUNNY     60  14  16 NW15G24   30.37F
*KERRVILLE     MOSUNNY   59  13  16 NW13G20   30.38F
*FREDERICKSBRG SUNNY     57  13  17 N15G28    30.37F
*ROCKSPRINGS   SUNNY     55  18  22 CALM      30.41F
*BOERNE STAGE  PTSUNNY   57  14  18 N13       30.37F
*CASTROVILLE   PTSUNNY   64  13  14 N16G22    30.38F
HONDO          MOSUNNY   64  15  15 N14G20    30.39F
*UVALDE        MOSUNNY   62  18  18 N12G17    30.40F
DEL RIO        MOSUNNY   60  13  15 NW9       30.42F
LAUGHLIN AFB   MOSUNNY   59  14  17 N10       30.40F
CARRIZO SPRGS  SUNNY     64  19  17 NE8G16    30.38F
*EAGLE PASS    CLEAR     61  12  15 N8G17     30.41F
$$

TXZ173-191>194-202-209-217>225-228-082100-
CENTRAL AND SOUTH CENTRAL TEXAS

CITY           SKY/WX    TMP DP  RH WIND       PRES   REMARKS
GEORGETOWN     SUNNY     61  16  17 NW17G31   30.35F
AUSTIN/BERGSTM MOSUNNY   64  14  14 NW16G26   30.33F
AUSTIN/MABRY   SUNNY     63  15  15 VRB6G20   30.35F
*AUSTIN/EXEC   SUNNY     61  14  16 NW17G28   30.35F
*LAGO VISTA    SUNNY     61  13  15 NW15G26   30.35F
SAN MARCOS     SUNNY     63  19  19 NW20      30.36F
NEW BRAUNFELS  PTSUNNY   63  15  15 NW16G25   30.34F
RANDOLPH AFB   PTSUNNY   62  16  17 NW15      30.35F
PT SAN ANTONIO PTSUNNY   62  20  19 N17G24    30.34F
SAN ANTONIO    PTSUNNY   62  15  16 NW13      30.37F
STINSON FIELD  MOSUNNY   65  16  15 N14       30.34F
*PLEASANTON    MOSUNNY   65  19  17 NW14      30.36F
*LA GRANGE     SUNNY     62  18  18 N14G24    30.31F
*GIDDINGS      SUNNY     59  13  17 NW16      30.36F
*GONZALES      SUNNY     64  22  19 N15G21    30.33F
$$

TXZ163>164-176>182-195>201-210>213-226-227-235-082100-
SOUTHEAST TEXAS

CITY           SKY/WX    TMP DP  RH WIND       PRES   REMARKS
COLLEGE STN    SUNNY     60  12  15 NW21G30   30.30F
*BRYAN           N/A     59  13  16 NW23G30   30.31F
*CALDWELL      SUNNY     59   9  13 NW22G29   30.35F
*CROCKETT      SUNNY     57  14  18 NW18G31   30.27F
*BRENHAM       SUNNY    N/A N/A N/A NW20      30.31
HUNTSVILLE     SUNNY     59  12  15 NW20G36   30.26F
CONROE         SUNNY     60   4  10 NW20G35   30.26F
HOUSTON BUSH   MOSUNNY   62  14  15 NW18G31   30.26F
HOUSTON HOBBY  PTSUNNY   62   9  12 NW23G29   30.25F
*HOUSTON SW AP SUNNY     62  17  17 NW14G28   30.27F
PEARLAND       SUNNY     63   9  12 NW21G30   30.26F
HOUSTON HOOKS  SUNNY     61  12  14 NW15G29   30.26F
ELLINGTON FLD  MOSUNNY   61  -8   6 W18G26    30.26F
SUGAR LAND     SUNNY     61  18  18 NW16G31   30.27F
*HOUSTON EXEC  SUNNY     59  14  17 NW17G24   30.30F
*CLEVELAND MUN SUNNY     61  19  19 N21G29    30.24F
*WHARTON       SUNNY     64  15  15 NW23G30   30.31F
*COLUMBUS      FAIR      62  17  17 NW18G24   30.30F
*EAGLE LAKE    CLEAR     61  16  17 N18G25    30.30F
$$

TXZ214>216-236>238-082100-
THE UPPER TEXAS COAST

CITY           SKY/WX    TMP DP  RH WIND       PRES   REMARKS
*ORANGE        SUNNY     61  -2   8 NW15G25   30.19F
PORT ARTHUR    SUNNY     63  16  16 NW18G35   30.19F
GALVESTON      SUNNY     63  23  21 NW20G32   30.24F
ANGLETON       SUNNY     64  19  17 NW9G22    30.27F
*BAY CITY      SUNNY     65  22  19 NW17G24   30.29F
PALACIOS       SUNNY     67  22  18 N22G29    30.30F
$$

TXZ229>234-239>247-082100-
TEXAS COASTAL BEND AND RIO GRANDE PLAINS

CITY           SKY/WX    TMP DP  RH WIND       PRES   REMARKS
VICTORIA       SUNNY     66  20  17 N17G26    30.32F
*BEEVILLE      SUNNY     67  24  19 N15G21    30.34F
ROCKPORT       MOSUNNY   71  26  18 N14       30.32F
*PORT ARANSAS  SUNNY     65  27  24 N15       30.32F
*PORT LAVACA   SUNNY     65  25  21 N21G28    30.32F
*INGLESIDE     MOSUNNY   66  19  16 N13G20    30.32F
CORPUS CHRISTI PTSUNNY   69  22  16 N17       30.33F
CORPUS NAS     PTSUNNY   68  33  27 N13       30.33F
*ROBSTOWN      MOSUNNY   69  21  16 N14G28    30.33F
ALICE          SUNNY     68  21  16 N14G23    30.34F
KINGSVILLE NAS PTSUNNY   68  26  20 N17G25    30.34F
COTULLA        SUNNY     67  18  15 N10       30.37F
*FAITH RANCH   SUNNY     66  18  15 N7G15     30.39F
LAREDO         SUNNY     66  20  17 N12G20    30.38F
$$

TXZ248>255-082100-
DEEP SOUTH TEXAS

CITY           SKY/WX    TMP DP  RH WIND       PRES   REMARKS
BROWNSVILLE    CLOUDY    66  50  56 N20G25    30.33S
PORT ISABEL    CLOUDY    64  50  60 N23G30    30.32F
*SOUTH PADRE     N/A     64  55  72 NE17      30.32S
HARLINGEN      CLOUDY    67  43  41 NE21      30.33S
*HEBBRONVILLE  NOT AVBL
MCALLEN        CLOUDY    70  33  25 N17G25    30.35F
*WESLACO       CLOUDY    66  40  38 N16G22    30.34S
FALFURRIAS     SUNNY     68  20  15 N14       30.34F
EDINBURG       CLOUDY    68  29  23 NE16      30.36S
*ZAPATA        CLOUDY    66  24  20 N9        30.37F
$$

TXZ213>215-236>238-242>244-246-247-251-254-255-082100-
CMAN STATIONS

STATION/POSITION TIME  TEMP    WIND        PRES    WAVE
                       AIR SEA DIR/SP/G            HT/PER
                 (UTC) (F)     (DEG/KT/KT) (MB)    (FT/S)
SABINE PASS      1900   58 56  330/ 18/ 27 1024.7
SEA RIM ST PARK  2000   59     320/ 26/ 32 1022.8
NORTH JETTY/GLS  1900   58 56  360/ 18/ 22   N/A
EAGLE POINT      1900   60 53  330/ 13/ 20 1024.9
MORGANS POINT    1900   59 53  290/ 14/ 23 1024.9
MISSION/ARANSAS  1900   62                 1028.0
PORT O`CONNOR    1900          350/ 14/ 17   N/A
PORT ARANSAS     2000   62 59  360/ 15/ 17 1027.5
MALAQUITE BEACH  1900   61 60   10/ 18/ 21 1027.9
BAFFIN BAY       1900   59 59   30/ 14/ 18 1028.4
PORT ISABEL      1900   61 62  360/ 16/ 21 1026.5
$$

GMZ080-GMZ150>470-082100-
OFFSHORE BUOY REPORTS

STATION/POSITION TIME  TEMP    WIND        PRES    WAVE
                       AIR SEA DIR/SP/G            HT/PER
                 (UTC) (F)     (DEG/KT/KT) (MB)    (FT/S)
20 E GALVESTON   1950   57 58  300/ 17/ 21 1023.5    3/ 4
90 E PT ARANSAS  1950   60 70  340/ 17/ 19 1025.5    5/ 6
35 NE PT MANSFLD 1950   61 69   20/ 21/ 27 1025.8    5/ 6
200 E PT ISABEL  1950                        N/A     4/ 5
$$



USA.gov is the U.S. government's official web portal to all federal, state and local government web resources and services.